Location: *
(41.7492°S, 135.4150°W)
Time: 23:21:13
(UTC+00:00)

METEOR M2 - Pass Details

Date: 03 July 2022
Orbit: 818 x 827 km, 98.4° (Epoch: 17 August)

Event Time Altitude Azimuth Distance (km) Brightness Sun altitude
Rises 15:07:11 0° 14° (NNE) 3,347 ? -14.8°
Reaches altitude 10° 15:09:31 10° 13° (NNE) 2,421 ? -14.4°
Maximum altitude 15:14:54 85° 285° (WNW) 838 ? -13.5°
Drops below altitude 10° 15:20:21 10° 194° (SSW) 2,448 ? -12.5°
Sets 15:22:43 0° 193° (SSW) 3,388 ? -12.1°
